Weather History for KFVE - October, 2013

Change the Weather History Date:

Monday, October 28, 2013

  Actual Average Record
Temperature  
Mean Temperature 30 °F 38 °F  
Max Temperature 34 °F 44 °F 62 °F (2010)
Min Temperature 25 °F 31 °F 19 °F (1999)
Degree Days  
Heating Degree Days 35    
Month to date heating degree days 511  
Since 1 July heating degree days 967  
Cooling Degree Days 0    
Month to date cooling degree days 0  
Year to date cooling degree days 139  
Moisture  
Dew Point 29 °F    
Average Humidity 88    
Maximum Humidity 100    
Minimum Humidity 75    
Precipitation  
Precipitation 0.09 in 0.08 in 0.76 in (1996)
Month to date precipitation 1.66 2.32  
Year to date precipitation 30.07 27.90  
Sea Level Pressure  
Sea Level Pressure 29.97 in    
Wind  
Wind Speed 9 mph (West)    
Max Wind Speed 18 mph    
Max Gust Speed 25 mph    
Visibility 5 miles    
Events Fog , Snow    
T = Trace of Precipitation, MM = Missing Value Source: NWS Daily Summary

Daily Weather History Graph

Daily Weather History Graph

Search for Another Location

Airport or City:

Trip Planner

Search our weather history database for the weather conditions in past years. The results will help you decide how hot, cold, wet, or windy it might be!

Date:

Astronomy

Oct. 28, 2013 Rise Set
Actual Time 7:10 AM EDT 5:22 PM EDT
Civil Twilight 6:39 AM EDT 5:54 PM EDT
Nautical Twilight 6:03 AM EDT 6:29 PM EDT
Astronomical Twilight 5:27 AM EDT 7:05 PM EDT
Moon 12:36 AM EDT (10/28) 2:23 PM EDT (10/28)
Length of Visible Light 11h 14m
Length of Day
10h 11m
Waning Crescent, 34% of the Moon is Illuminated
Oct 28
Waning Crescent
Nov 3
New
Nov 10
First Quarter
Nov 17
Full
Nov 25
Last Quarter

Hourly Weather History & Observations

Time (EDT) Temp. Windchill Dew Point Humidity Pressure Visibility Wind Dir Wind Speed Gust Speed Precip Events Conditions
12:53 AM 34.0 °F 27.2 °F 32.0 °F 92% 29.83 in 10.0 mi West 8.1 mph - 0.00 in   Overcast
1:53 AM 34.0 °F 26.0 °F 30.9 °F 89% 29.84 in 10.0 mi West 10.4 mph - N/A   Overcast
2:53 AM 33.1 °F 27.7 °F 30.9 °F 92% 29.84 in 10.0 mi WSW 5.8 mph - N/A   Mostly Cloudy
3:53 AM 33.1 °F 25.5 °F 30.0 °F 89% 29.85 in 10.0 mi West 9.2 mph - N/A   Scattered Clouds
4:53 AM 30.9 °F 24.3 °F 28.9 °F 92% 29.86 in 10.0 mi West 6.9 mph - N/A   Clear
5:53 AM 30.9 °F 21.7 °F 28.9 °F 92% 29.86 in 10.0 mi West 11.5 mph - N/A   Clear
6:53 AM 30.0 °F 21.7 °F 28.0 °F 92% 29.87 in 10.0 mi WSW 9.2 mph - N/A   Clear
7:53 AM 30.0 °F 20.0 °F 27.0 °F 88% 29.89 in 10.0 mi West 12.7 mph - N/A   Clear
8:53 AM 32.0 °F 25.6 °F 28.0 °F 85% 29.91 in 10.0 mi WSW 6.9 mph - N/A   Clear
9:53 AM 33.1 °F 26.1 °F 28.0 °F 82% 29.91 in 10.0 mi WSW 8.1 mph - N/A   Mostly Cloudy
10:53 AM 34.0 °F 26.6 °F 28.0 °F 79% 29.91 in 10.0 mi WSW 9.2 mph - N/A   Overcast
11:18 AM 33.8 °F 26.4 °F 28.4 °F 81% 29.89 in 2.0 mi WSW 9.2 mph - 0.00 in Snow Light Snow
11:22 AM 33.8 °F 25.8 °F 28.4 °F 81% 29.89 in 1.5 mi WSW 10.4 mph - 0.00 in Snow Light Snow
11:53 AM 32.0 °F 27.5 °F 30.0 °F 92% 29.91 in 1.5 mi WSW 4.6 mph - 0.00 in Snow Light Snow
12:00 PM 32.0 °F 27.5 °F 30.2 °F 93% 29.89 in 1.0 mi SW 4.6 mph - 0.00 in Snow Light Snow
12:07 PM 32.0 °F 28.7 °F 30.2 °F 93% 29.88 in 1.0 mi WSW 3.5 mph - 0.01 in Snow Light Snow
12:16 PM 32.0 °F 28.7 °F 30.2 °F 93% 29.88 in 0.8 mi WSW 3.5 mph - 0.01 in Snow Light Snow
12:37 PM 32.0 °F 26.4 °F 30.2 °F 93% 29.89 in 1.0 mi WSW 5.8 mph - 0.02 in Snow Light Snow
12:45 PM 30.2 °F 24.3 °F 30.2 °F 100% 29.90 in 0.5 mi WSW 5.8 mph - 0.03 in Fog , Snow Snow
12:53 PM 30.9 °F 24.3 °F 30.0 °F 96% 29.93 in 0.5 mi SW 6.9 mph - 0.03 in Fog , Snow Snow
1:08 PM 30.2 °F 25.4 °F 30.2 °F 100% 29.90 in 0.2 mi WSW 4.6 mph - 0.02 in Fog , Snow Heavy Snow
1:34 PM 32.0 °F 24.8 °F 30.2 °F 93% 29.91 in 0.5 mi West 8.1 mph - 0.05 in Fog , Snow Snow
1:53 PM 32.0 °F 24.8 °F 30.0 °F 92% 29.95 in 0.5 mi WNW 8.1 mph - 0.05 in Fog , Snow Snow
2:03 PM 32.0 °F 26.4 °F 30.2 °F 93% 29.92 in 0.8 mi WNW 5.8 mph - 0.01 in Snow Light Snow
2:06 PM 32.0 °F 27.5 °F 30.2 °F 93% 29.92 in 1.0 mi WNW 4.6 mph - 0.01 in Snow Light Snow
2:23 PM 32.0 °F 26.4 °F 30.2 °F 93% 29.93 in 1.8 mi NW 5.8 mph - 0.01 in Snow Light Snow
2:32 PM 32.0 °F 25.6 °F 30.2 °F 93% 29.94 in 2.5 mi NW 6.9 mph - 0.01 in Snow Light Snow
2:41 PM 32.0 °F 27.5 °F 30.2 °F 93% 29.94 in 1.5 mi NW 4.6 mph - 0.01 in Snow Light Snow
2:49 PM 32.0 °F 25.6 °F 30.2 °F 93% 29.95 in 1.5 mi NW 6.9 mph - 0.01 in Snow Light Snow
2:53 PM 32.0 °F 25.6 °F 30.0 °F 92% 29.98 in 1.8 mi NW 6.9 mph - 0.01 in Snow Light Snow
2:59 PM 33.8 °F 27.7 °F 30.2 °F 87% 29.95 in 2.5 mi WNW 6.9 mph - 0.00 in Snow Light Snow
3:06 PM 33.8 °F 27.7 °F 30.2 °F 87% 29.96 in 4.0 mi WNW 6.9 mph - 0.00 in Snow Light Snow
3:19 PM 33.8 °F 27.7 °F 30.2 °F 87% 29.96 in 3.0 mi WNW 6.9 mph - 0.00 in Snow Light Snow
3:23 PM 33.8 °F 27.7 °F 30.2 °F 87% 29.97 in 3.0 mi WNW 6.9 mph - 0.00 in Snow Light Snow
3:32 PM 33.8 °F 26.4 °F 30.2 °F 87% 29.98 in 1.5 mi WNW 9.2 mph - 0.00 in Snow Light Snow
3:36 PM 33.8 °F 25.3 °F 30.2 °F 87% 29.98 in 0.8 mi WNW 11.5 mph - 0.00 in Snow Light Snow
3:39 PM 33.8 °F 24.8 °F 30.2 °F 87% 29.98 in 1.0 mi WNW 12.7 mph - 0.00 in Snow Light Snow
3:44 PM 32.0 °F 22.5 °F 30.2 °F 93% 29.98 in 2.5 mi WNW 12.7 mph - 0.00 in Snow Light Snow
3:46 PM 32.0 °F 23.6 °F 30.2 °F 93% 29.98 in 6.0 mi WNW 10.4 mph - 0.00 in   Overcast
3:53 PM 33.1 °F 25.5 °F 30.9 °F 92% 30.01 in 10.0 mi WNW 9.2 mph - 0.00 in   Scattered Clouds
4:41 PM 33.8 °F 27.0 °F 30.2 °F 87% 30.02 in 10.0 mi WNW 8.1 mph - N/A   Mostly Cloudy
4:53 PM 33.1 °F 24.4 °F 28.9 °F 85% 30.06 in 10.0 mi WNW 11.5 mph - N/A   Overcast
5:19 PM 32.0 °F 24.2 °F 28.4 °F 87% 30.04 in 10.0 mi West 9.2 mph - N/A   Scattered Clouds
5:53 PM 32.0 °F 23.0 °F 27.0 °F 82% 30.09 in 10.0 mi NW 11.5 mph - N/A   Clear
6:53 PM 30.9 °F 22.2 °F 27.0 °F 85% 30.14 in 10.0 mi WNW 10.4 mph - N/A   Mostly Cloudy
7:05 PM 30.2 °F 19.8 °F 26.6 °F 86% 30.11 in 10.0 mi WNW 13.8 mph - N/A   Mostly Cloudy
7:53 PM 30.0 °F 18.7 °F 23.0 °F 75% 30.17 in 10.0 mi WNW 16.1 mph 24.2 mph N/A   Clear
8:53 PM 28.9 °F 19.2 °F 21.9 °F 75% 30.19 in 10.0 mi WNW 11.5 mph - N/A   Clear
9:53 PM 28.0 °F 20.8 °F 21.0 °F 75% 30.22 in 10.0 mi WNW 6.9 mph - N/A   Clear
10:53 PM 27.0 °F 19.5 °F 21.0 °F 78% 30.23 in 10.0 mi NW 6.9 mph - N/A   Clear
11:53 PM 26.1 °F 16.8 °F 21.0 °F 81% 30.25 in 10.0 mi WNW 9.2 mph - N/A   Clear